Regional Weather Roundup
Issued by NWS

Home | Current Version | Previous Version | Text Only | Print | Product List | Glossary On
Versions: 1 2 3 4 5 6 7 8 9 10 11 12 13 14 15 16 17 18 19 20 21 22 23 24 25 26 27 28 29 30 31 32 33 34 35 36 37 38 39 40 41 42 43 44 45 46 47 48 49 50
000
ASUS45 KCYS 080710
RWRWY

WYOMING REGIONAL WEATHER ROUNDUP
NATIONAL WEATHER SERVICE CHEYENNE WY
100 AM MDT WED JUL 08 2015

NOTE:  "FAIR" INDICATES FEW OR NO CLOUDS BELOW 12,000 FEET
WITH NO SIGNIFICANT WEATHER AND/OR OBSTRUCTIONS TO VISIBILITY.

WYZ001-080800-
YELLOWSTONE NATIONAL PARK

CITY           SKY/WX    TMP DP  RH WIND       PRES   REMARKS
LK YELLOWSTONE   N/A     49  43  80 NW3       30.25F
W YELLOWSTONE  NOT AVBL

$$
WYZ002>013-054>058-071-098>099-080800-
NORTHERN WYOMING

CITY           SKY/WX    TMP DP  RH WIND       PRES   REMARKS
JACKSON        FAIR      55  52  88 CALM      30.16S
CODY           MOCLDY    57  43  58 NW8       30.14S
GREYBULL       FAIR      63  54  72 E6        30.05S
WORLAND        FAIR      57  55  93 SE7       30.05S
SHERIDAN       MOCLDY    63  49  60 W15G23    30.07R
BUFFALO        MOCLDY    58  50  75 W8        30.11R
GILLETTE       FAIR      53  51  93 CALM      30.05F
HULETT         FAIR      55  52  88 SW5       30.06S
NEWCASTLE      FAIR      63  48  59 MISG      30.06F

$$
WYZ014>020-022>026-101>103-080800-
CENTRAL WYOMING

CITY           SKY/WX    TMP DP  RH WIND       PRES   REMARKS
BIG PINEY      FAIR      50  48  93 N8        30.22S
PINEDALE       CLOUDY    52  52 100 W3        30.22S
DUBOIS         CLOUDY    50  48  93 CALM      30.23S
LANDER         FAIR      57  52  83 W8        30.14F
RIVERTON       FAIR      57  54  89 W8        30.13F
CASPER         FAIR      55  52  89 NE5       30.10S
DOUGLAS        MOCLDY    58  57  97 CALM      30.08S

$$
WYZ021-027>030-104>119-080800-
SOUTHERN WYOMING

CITY           SKY/WX    TMP DP  RH WIND       PRES   REMARKS
EVANSTON       FAIR      53  47  79 CALM      30.17F
KEMMERER       FAIR      50  46  87 N6        30.20F
FORT BRIDGER   CLOUDY    55  55 100 CALM      30.20S
ROCK SPRINGS   MOCLDY    54  51  90 CALM      30.17S
DIXON          PTSUNNY   56  53  88 E5        30.15F
RAWLINS        CLOUDY    55  52  89 N6        30.16R
SARATOGA       FAIR      52  52 100 NW5       30.17R
LARAMIE        CLOUDY    54  52  93 S6        30.16S
CHEYENNE       MOCLDY    56  53  90 CALM      30.12S FOG
TORRINGTON     CLOUDY    62  51  67 E10       30.04S
PINE BLUFFS    CLOUDY    59  45  58 SE10G16   30.09F

$$


USA.gov is the U.S. government's official web portal to all federal, state and local government web resources and services.